This demonstration page uses our WeatherBlox Daily Observations layout. Learn more.

Left ArrowRight Arrow

36.17497, -115.13722

Hourly Observations for July 2, 2017

Temp ( °F °C ) Dew Point ( °F °C ) Humidity (%) Winds ( mph kmh ) Pressure ( in mb ) Visibility ( mi km ) Precip ( " mm )
12:53 am 00:53 Clear 89 31.7 21 -6.1 8 8 S 9 15 29.75 1008 10 16 N/A
1:53 am 01:53 Clear 87 30.6 21 -6.1 9 9 WSW 6 9 29.75 1008 10 16 N/A
2:53 am 02:53 Clear 86 30 24 -4.4 10 10 SSW 7 11 29.76 1008 10 16 N/A
3:53 am 03:53 Clear 82 27.8 26 -3.3 13 13 SE 5 7 29.78 1009 10 16 N/A
4:53 am 04:53 Clear 82 27.8 26 -3.3 13 13 N N/A 29.81 1009 10 16 N/A
5:53 am 05:53 Sunny 79 26.1 27 -2.8 15 15 E 3 6 29.83 1010 10 16 N/A
6:53 am 06:53 Sunny 83 28.3 31 -0.6 15 15 ENE 6 9 29.87 1011 10 16 N/A
7:53 am 07:53 Sunny 87 30.6 30 -1.1 13 13 E 10 17 29.89 1012 10 16 N/A
8:53 am 08:53 Sunny 90 32.2 29 -1.7 11 11 ESE 12 19 29.90 1013 10 16 N/A
9:53 am 09:53 Sunny 93 33.9 32 undefined 11 11 ESE 10 17 29.90 1013 10 16 N/A
10:53 am 10:53 Sunny 96 35.6 33 0.6 11 11 SE 15 24 29.89 1012 10 16 N/A
11:53 am 11:53 Sunny 99 37.2 32 undefined 9 9 SSE 9 15 29.89 1012 10 16 N/A
12:53 pm 12:53 Sunny 100 37.8 31 -0.6 9 9 S 15 24 29.88 1012 10 16 N/A
1:53 pm 13:53 Sunny 102 38.9 27 -2.8 7 7 SSE 15 24 29.86 1011 10 16 N/A
2:53 pm 14:53 Sunny 104 40 24 -4.4 6 6 SSE 23 37 29.84 1011 10 16 N/A
3:53 pm 15:53 Sunny 104 40 20 -6.7 5 5 S 14 22 29.83 1010 10 16 N/A
4:53 pm 16:53 Sunny 104 40 15 -9.4 4 4 S 14 22 29.81 1010 10 16 N/A
5:53 pm 17:53 Sunny 103 39.4 9 -12.8 3 3 S 7 11 29.81 1009 10 16 N/A
6:53 pm 18:53 Sunny 102 38.9 10 -12.2 3 3 SSW 16 26 29.81 1010 10 16 N/A
7:53 pm 19:53 Sunny 100 37.8 10 -12.2 3 3 WSW 13 20 29.82 1010 10 16 N/A
8:53 pm 20:53 Clear 97 36.1 16 -8.9 5 5 WSW 8 13 29.84 1010 10 16 N/A
9:53 pm 21:53 Clear 94 34.4 21 -6.1 7 7 S 9 15 29.85 1011 10 16 N/A
10:53 pm 22:53 Clear 93 33.9 12 -11.1 5 5 SSW 10 17 29.86 1011 10 16 N/A
11:53 pm 23:53 Clear 91 32.8 16 -8.9 6 6 SSW 13 20 29.87 1012 10 16 N/A

Powered by AerisWeather